Temp
81 80 82 82 79 78 77 76 75 73 73 71 72 71 71 72 74 75 78 77 78 78 76 75 75 75 75 75 74 72 72 71 71 69 73 69 71 72 71 70 69 71 72
79 77 80 80 78 77 76 75 76 74 74 72 72 73 73 73 74 75 76 76 77 78 77 75 74 74 73 74 74 74 71 71 69 67 65 64 68 70 69 69 70 70 69
78 76 78 78 78 77 76 75 76 75 75 73 72 72 72 72 71 72 75 76 77 77 77 76 75 74 73 73 73 73 72 70 69 68 67 64 61 62 68 68 68 69 68
80 79 78 78 78 78 78 77 76 74 75 73 73 71 70 70 70 72 74 76 77 77 78 76 76 75 74 74 72 73 72 71 70 69 69 66 66 62 62 67 66 68 68
81 79 79 79 80 81 79 78 76 75 75 76 75 73 70 70 71 72 73 73 75 76 78 76 76 75 77 76 73 72 73 72 70 68 67 66 65 64 62 62 64 66 66
82 82 81 81 80 82 80 79 75 75 75 75 73 73 71 70 69 71 72 72 74 75 76 77 76 75 76 77 74 73 73 73 71 69 67 66 66 65 64 62 63 62 64
82 81 79 79 79 80 80 79 75 74 75 75 74 73 73 71 71 71 71 71 72 73 75 75 75 75 76 75 74 73 73 73 71 70 69 68 67 67 66 63 63 61 62
83 82 82 80 80 80 80 79 76 75 74 74 74 74 73 74 74 71 71 73 72 73 75 76 76 76 77 75 75 74 73 72 71 70 70 69 68 68 66 65 63 59 59
83 83 83 82 81 80 80 79 78 77 75 75 76 74 73 73 74 72 71 73 73 75 75 76 76 77 77 76 74 73 73 69 68 69 69 68 68 68 68 68 64 61 56
84 84 83 83 82 82 82 81 80 78 76 76 77 76 74 74 75 71 73 73 74 74 75 75 75 75 75 75 74 73 73 69 67 67 67 65 66 68 67 67 66 62 59
84 85 85 84 84 83 82 81 80 78 77 77 77 77 75 74 73 74 74 75 73 73 74 74 74 74 75 75 74 73 71 69 66 66 66 66 67 66 65 63 59 57 57
86 87 86 84 84 82 82 80 80 78 78 77 77 76 76 74 72 73 75 73 73 72 73 73 73 74 74 75 73 72 70 68 65 65 67 66 68 63 59 56 55 53 52
80 81 82 82 82 83 81 80 80 78 78 77 76 75 74 73 74 74 73 73 73 73 73 74 74 74 75 74 72 69 68 67 67 66 66 68 64 60 58 55 53 51 54
77 78 79 81 82 83 81 80 80 80 78 77 75 74 74 73 74 74 74 74 74 74 73 74 74 75 75 74 71 68 68 68 68 67 68 66 63 61 57 54 51 50 50
76 77 80 80 81 81 82 80 80 78 79 76 75 75 75 75 74 72 73 74 74 75 75 75 75 76 76 73 69 69 69 66 62 64 66 66 66 64 60 54 49 50 48
79 81 80 80 80 80 81 80 79 77 78 76 75 76 75 73 73 74 74 73 74 74 75 75 76 76 77 65 66 69 66 64 65 64 64 62 65 63 64 63 62 56 51
78 79 81 81 81 81 82 80 78 78 77 76 76 75 74 73 74 74 73 74 74 74 75 76 76 74 69 63 64 66 67 62 67 64 60 64 63 60 57 62 62 62 62
75 76 78 81 82 82 82 81 79 76 76 76 75 74 74 74 73 73 74 74 74 75 75 76 74 70 67 62 62 65 67 67 67 60 59 57 55 55 55 54 53 53 53
72 74 77 77 77 81 80 77 75 75 75 75 74 74 74 73 72 74 74 74 75 75 75 74 71 69 65 60 61 67 68 65 58 58 57 56 55 58 58 54 52 51 52
72 72 76 76 76 75 76 76 74 73 74 75 75 74 74 74 73 74 74 74 75 73 72 72 71 66 66 58 59 66 67 60 55 53 54 60 55 57 56 53 51 51 50
71 73 74 76 74 73 75 74 72 75 77 75 74 73 75 75 75 74 74 74 72 71 71 69 69 68 66 61 58 59 66 60 55 54 52 52 55 53 53 53 52 53 50
71 71 71 72 72 73 76 72 72 77 75 74 73 73 73 77 76 75 74 73 72 70 69 68 66 66 65 58 56 56 58 60 59 53 51 52 53 51 52 52 53 53 54
67 69 69 71 71 72 73 73 74 74 74 73 73 74 75 75 76 74 74 73 72 71 69 68 65 63 62 61 54 55 56 57 55 53 54 53 51 51 52 53 53 54 51
63 66 67 67 67 68 71 71 72 74 74 74 74 74 75 75 75 74 75 73 72 70 69 67 65 64 63 61 60 57 56 57 56 55 52 54 54 54 53 53 53 51 51
62 63 64 65 65 66 68 70 73 74 73 73 73 74 76 76 74 71 71 73 74 71 70 69 68 65 63 63 57 56 58 57 55 51 50 51 50 50 50 49 50 49 50
60 61 61 63 65 68 69 69 72 74 74 73 74 76 76 74 68 66 64 54 57 56 53 57 64 66 58 51 49 49 49 48 49 52 50 49 50 51 50 50 49 48 52
MSLP
1009.44 1009.90 1010.40 1011.07 1011.73 1012.37 1012.99 1013.43 1013.91 1014.23 1014.62 1015.07 1015.52 1015.98 1016.26 1016.08 1015.90 1015.60 1015.52 1015.65 1015.76 1015.86 1016.17 1016.17 1016.01 1015.96 1016.42 1016.46 1016.67 1016.88 1017.01 1016.86 1016.59 1016.57 1016.07 1015.62 1015.43 1015.25 1015.23 1014.94 1014.94 1014.55 1014.30
1009.03 1009.65 1010.02 1010.69 1011.22 1011.84 1012.52 1013.22 1013.53 1013.89 1014.21 1014.54 1015.02 1015.42 1015.71 1015.88 1015.85 1015.66 1015.63 1015.66 1015.66 1015.68 1016.00 1016.14 1016.30 1016.46 1016.68 1016.60 1016.67 1016.74 1017.06 1017.08 1016.85 1017.14 1017.20 1016.77 1016.08 1015.59 1015.46 1015.26 1015.18 1014.92 1014.52
1008.29 1008.96 1009.49 1010.08 1010.76 1011.42 1012.04 1012.58 1013.04 1013.43 1013.82 1014.21 1014.80 1015.32 1015.57 1015.70 1015.93 1015.92 1015.77 1015.50 1015.52 1015.67 1015.74 1015.88 1016.08 1016.36 1016.54 1016.59 1016.86 1016.76 1017.11 1017.16 1017.03 1016.99 1017.16 1017.17 1017.05 1016.72 1015.75 1015.70 1015.56 1015.06 1014.71
1007.63 1008.19 1008.78 1009.45 1010.10 1010.62 1011.34 1011.97 1012.54 1013.06 1013.44 1013.82 1014.48 1015.00 1015.33 1015.72 1015.74 1015.84 1015.77 1015.57 1015.43 1015.44 1015.40 1015.59 1015.84 1016.14 1016.30 1016.35 1016.58 1016.66 1016.67 1016.82 1017.00 1016.97 1017.14 1017.28 1017.32 1017.32 1016.75 1015.87 1015.57 1015.26 1014.94
1006.55 1007.22 1007.91 1008.48 1009.03 1009.91 1010.75 1011.39 1012.08 1012.72 1013.09 1013.46 1013.97 1014.64 1015.08 1015.35 1015.50 1015.73 1015.75 1015.64 1015.42 1015.30 1015.26 1015.52 1015.74 1016.06 1016.15 1016.07 1016.37 1016.34 1016.14 1016.43 1016.65 1016.74 1016.88 1016.97 1016.91 1017.04 1017.07 1016.48 1015.95 1015.50 1015.29
1005.43 1006.22 1006.94 1007.86 1008.52 1009.21 1010.00 1010.84 1011.65 1012.13 1012.62 1013.05 1013.61 1014.05 1014.51 1015.02 1015.50 1015.60 1015.74 1015.63 1015.50 1015.30 1015.10 1015.29 1015.51 1015.67 1015.67 1015.58 1015.76 1015.67 1015.65 1015.36 1015.64 1016.12 1016.56 1016.70 1016.72 1016.67 1016.72 1016.73 1016.31 1016.16 1016.10
1004.35 1005.18 1006.25 1006.96 1007.76 1008.50 1009.20 1010.11 1011.01 1011.74 1012.18 1012.68 1013.20 1013.60 1013.88 1014.50 1014.92 1015.25 1015.42 1015.57 1015.59 1015.35 1015.24 1015.32 1015.45 1015.33 1014.86 1014.93 1014.86 1014.04 1013.39 1014.35 1014.59 1015.33 1015.70 1016.08 1016.22 1016.12 1016.23 1016.34 1016.43 1016.42 1016.28
1002.84 1003.61 1004.54 1005.72 1006.74 1007.66 1008.44 1009.19 1010.17 1010.99 1011.66 1012.14 1012.60 1013.11 1013.52 1013.91 1014.24 1014.58 1014.88 1015.02 1015.15 1015.12 1015.16 1015.28 1015.03 1014.80 1014.29 1014.23 1013.91 1014.53 1015.08 1015.17 1014.86 1015.05 1015.42 1015.84 1015.78 1015.77 1015.86 1015.96 1016.33 1016.58 1016.66
1001.96 1002.64 1003.60 1004.60 1005.65 1006.75 1007.56 1008.33 1009.27 1010.08 1010.84 1011.35 1011.89 1012.57 1013.05 1013.38 1013.62 1013.82 1014.15 1014.50 1014.52 1014.66 1014.78 1014.89 1014.99 1014.70 1014.29 1013.92 1013.78 1014.05 1014.65 1014.76 1014.58 1014.86 1015.21 1015.53 1015.57 1015.49 1015.55 1015.60 1015.97 1016.39 1017.01
1001.00 1001.95 1002.91 1003.71 1004.72 1005.50 1006.44 1007.53 1008.42 1009.11 1009.65 1010.46 1011.17 1011.80 1012.31 1012.65 1012.96 1013.35 1013.58 1014.02 1014.11 1014.16 1014.37 1014.57 1014.69 1014.67 1014.31 1013.95 1013.72 1014.06 1014.28 1014.39 1014.61 1014.86 1015.19 1015.50 1015.48 1015.40 1015.62 1015.58 1015.95 1016.28 1016.67
1000.24 1001.08 1001.87 1002.74 1003.50 1004.64 1005.93 1006.70 1007.74 1008.69 1009.43 1010.02 1010.56 1011.16 1011.70 1012.13 1012.56 1012.76 1013.02 1013.47 1013.62 1013.60 1013.85 1014.08 1014.30 1014.42 1014.16 1013.79 1013.66 1013.72 1014.02 1014.45 1014.97 1015.55 1015.47 1015.38 1015.70 1015.70 1015.88 1016.12 1016.40 1016.65 1016.77
999.92 1000.50 1001.16 1001.99 1003.09 1003.99 1005.00 1005.84 1006.86 1007.87 1008.57 1009.08 1009.84 1010.52 1011.04 1011.64 1012.06 1012.28 1012.50 1012.88 1013.01 1013.18 1013.27 1013.54 1013.84 1013.84 1013.73 1013.56 1013.55 1013.40 1013.68 1014.59 1015.36 1015.60 1015.47 1015.60 1015.87 1016.17 1016.70 1016.95 1017.28 1017.38 1017.47
999.77 1000.22 1001.05 1001.78 1002.54 1003.36 1004.18 1005.07 1006.03 1006.88 1007.84 1008.75 1009.39 1010.08 1010.73 1011.20 1011.46 1011.66 1011.94 1012.16 1012.60 1012.72 1012.88 1013.08 1013.35 1013.22 1013.33 1013.31 1013.60 1013.73 1014.13 1014.61 1014.92 1015.26 1015.40 1015.63 1016.01 1016.82 1017.30 1017.60 1018.01 1018.19 1018.08
999.40 999.92 1000.55 1001.17 1001.84 1002.60 1003.47 1004.32 1005.25 1006.34 1007.27 1008.22 1008.90 1009.51 1010.11 1010.50 1010.81 1011.07 1011.32 1011.70 1012.08 1012.40 1012.52 1012.55 1012.66 1012.71 1012.70 1013.10 1013.36 1013.93 1014.42 1014.70 1014.98 1015.41 1015.67 1015.95 1016.52 1017.15 1017.77 1018.12 1018.56 1018.70 1018.84
999.29 999.60 999.97 1000.54 1001.30 1002.18 1003.02 1003.87 1004.80 1005.78 1006.56 1007.61 1008.35 1008.87 1009.33 1009.78 1010.23 1010.63 1010.88 1011.16 1011.62 1011.93 1012.02 1012.13 1012.22 1012.14 1012.40 1012.78 1013.34 1014.00 1014.56 1014.98 1015.52 1015.83 1016.02 1016.41 1016.92 1017.38 1017.75 1018.12 1018.87 1018.98 1019.31
998.82 998.95 999.65 1000.17 1000.66 1001.28 1002.16 1003.18 1004.14 1005.12 1005.96 1007.03 1007.66 1008.20 1008.88 1009.37 1009.72 1010.03 1010.45 1010.78 1011.12 1011.40 1011.68 1011.83 1011.82 1011.84 1012.01 1012.51 1013.29 1013.92 1014.68 1015.31 1015.72 1016.14 1016.67 1017.07 1017.48 1017.76 1018.12 1018.55 1018.74 1018.76 1019.27
998.85 999.00 998.87 998.88 999.75 1000.44 1001.39 1002.53 1003.49 1004.60 1005.52 1006.32 1006.91 1007.69 1008.28 1008.84 1009.20 1009.62 1010.16 1010.41 1010.61 1010.93 1011.32 1011.40 1011.50 1011.92 1012.36 1012.86 1013.55 1014.02 1014.78 1015.50 1015.92 1016.45 1017.02 1017.54 1017.95 1018.24 1018.51 1018.84 1019.05 1019.21 1019.28
998.05 998.28 998.55 999.02 999.44 1000.21 1001.12 1002.19 1003.18 1004.07 1005.01 1005.64 1006.34 1007.02 1007.66 1008.28 1008.85 1009.35 1009.67 1009.86 1010.17 1010.57 1010.84 1011.04 1011.51 1012.07 1012.89 1013.29 1013.85 1014.52 1015.22 1015.84 1016.47 1016.90 1017.30 1017.91 1018.42 1018.68 1018.84 1019.14 1019.41 1019.48 1019.43
998.10 997.91 998.25 998.90 999.57 1000.18 1000.92 1002.01 1003.06 1003.90 1004.61 1005.08 1005.65 1006.30 1006.96 1007.74 1008.37 1008.81 1009.00 1009.30 1009.82 1010.23 1010.61 1011.01 1011.69 1012.37 1013.35 1013.71 1014.21 1014.71 1015.59 1016.33 1017.27 1017.62 1017.94 1018.38 1018.77 1018.85 1018.90 1019.29 1019.76 1019.78 1019.64
998.63 998.53 998.61 999.15 999.80 1000.45 1000.97 1001.95 1002.94 1003.64 1004.06 1004.52 1005.06 1005.59 1006.20 1006.95 1007.58 1007.93 1008.41 1008.84 1009.30 1010.00 1010.63 1011.34 1011.82 1012.50 1013.44 1014.16 1014.58 1015.13 1015.72 1016.90 1017.88 1018.19 1018.42 1018.58 1018.66 1018.83 1019.13 1019.49 1019.92 1020.04 1020.03
999.63 999.49 999.53 999.82 1000.13 1000.72 1001.26 1002.06 1002.57 1002.97 1003.35 1003.93 1004.50 1005.20 1005.62 1006.04 1006.61 1007.34 1007.95 1008.50 1009.26 1010.07 1010.83 1011.49 1012.35 1013.01 1013.55 1014.52 1014.86 1015.31 1015.84 1016.78 1017.95 1018.38 1018.77 1018.77 1018.84 1019.13 1019.39 1019.52 1019.78 1020.02 1020.13
1000.91 1000.46 1000.48 1000.82 1000.68 1000.96 1001.31 1002.02 1002.32 1002.34 1002.94 1003.62 1004.25 1004.79 1005.23 1005.69 1006.30 1006.96 1007.65 1008.34 1009.17 1010.12 1011.08 1011.82 1012.90 1013.66 1014.28 1014.67 1015.16 1015.61 1015.79 1016.62 1017.37 1018.32 1018.61 1018.89 1019.34 1019.63 1019.64 1019.61 1019.77 1020.12 1020.35
1002.42 1002.08 1001.24 1001.50 1001.60 1001.73 1001.63 1002.20 1001.87 1002.28 1002.81 1003.50 1004.06 1004.49 1004.94 1005.40 1005.82 1006.61 1007.44 1008.31 1009.05 1009.90 1010.98 1011.81 1012.92 1013.97 1014.76 1015.40 1015.57 1015.86 1016.37 1016.82 1017.58 1018.09 1018.62 1019.06 1019.58 1019.91 1019.92 1019.86 1020.16 1020.37 1020.73
1003.92 1003.56 1002.52 1002.07 1002.50 1002.49 1002.23 1002.18 1002.03 1002.14 1002.54 1003.10 1003.60 1004.15 1004.76 1005.35 1005.92 1006.66 1007.35 1007.92 1008.75 1009.72 1010.58 1011.55 1012.72 1013.72 1014.71 1015.54 1016.17 1016.60 1016.94 1017.25 1018.04 1018.54 1019.06 1019.48 1019.97 1020.15 1020.23 1020.24 1020.44 1020.71 1021.04
1005.40 1004.84 1003.99 1003.14 1003.09 1002.82 1002.51 1002.24 1002.03 1002.15 1002.52 1002.94 1003.48 1004.07 1004.68 1005.35 1006.08 1006.88 1007.55 1007.68 1008.04 1008.44 1009.70 1010.72 1011.83 1012.92 1014.12 1014.94 1015.57 1016.22 1016.82 1017.34 1018.08 1018.77 1019.39 1019.82 1020.28 1020.71 1020.91 1020.98 1021.04 1021.17 1021.34
1006.21 1005.42 1004.95 1004.20 1003.55 1003.45 1003.12 1002.60 1002.38 1002.28 1002.52 1003.04 1003.52 1003.92 1004.62 1005.40 1006.36 1007.12 1007.89 1008.22 1008.18 1008.62 1009.15 1009.83 1010.97 1012.50 1013.25 1014.52 1015.46 1016.05 1016.59 1017.16 1017.98 1018.88 1019.48 1019.88 1020.31 1020.68 1020.90 1021.12 1021.53 1021.72 1021.81
Wind_Speed
15 13 14 14 12 12 12 13 11 8 6 3 3 2 3 2 2 2 5 5 5 5 5 4 4 2 1 1 2 0 2 2 2 3 4 3 4 2 3 3 1 3 3
13 11 15 15 15 15 13 11 13 11 8 4 3 3 2 2 2 1 4 5 6 6 5 5 5 3 1 3 1 1 1 2 2 2 0 4 5 4 4 1 1 7 4
18 13 16 16 15 15 14 14 14 11 9 6 3 3 2 1 1 0 3 3 5 5 6 6 5 4 2 3 1 2 2 2 1 1 2 2 3 3 3 3 3 6 4
17 15 16 16 17 17 15 14 12 11 10 9 6 6 4 4 3 3 3 4 5 6 7 6 5 4 3 4 3 2 2 2 3 2 1 2 1 1 4 2 4 5 6
19 18 18 19 19 17 15 14 12 11 10 11 9 7 5 4 2 2 3 3 5 6 6 5 5 5 4 4 4 2 3 2 2 3 1 2 1 2 4 4 4 3 4
19 18 17 17 17 16 15 14 13 13 11 12 9 11 9 6 4 4 4 3 3 4 5 5 5 4 5 6 3 5 6 6 5 3 3 2 2 2 3 3 3 1 2
19 18 18 18 17 18 17 15 14 14 12 13 11 10 10 8 8 6 5 4 3 3 5 4 4 4 6 5 6 10 10 3 3 5 3 3 3 2 2 2 2 2 1
20 22 22 19 20 19 18 18 16 14 13 13 12 10 8 7 7 6 5 5 4 4 3 3 3 5 7 5 8 1 2 5 4 6 4 1 2 2 2 2 2 1 1
18 21 20 20 20 19 20 19 17 16 14 14 12 10 8 9 9 8 6 5 5 4 6 5 5 6 7 7 6 3 4 5 4 6 5 2 2 2 2 1 2 3 1
17 17 17 19 18 19 19 18 17 18 16 16 13 10 11 11 10 6 9 7 5 6 5 4 4 5 7 7 6 3 3 6 3 3 5 2 2 3 2 2 1 0 3
15 17 17 18 20 16 16 17 16 15 13 13 12 11 10 9 7 8 8 7 6 7 6 6 5 5 7 7 5 6 4 5 4 4 1 4 3 3 4 4 3 3 2
13 15 17 17 18 18 17 18 16 15 15 14 13 12 10 8 8 9 9 7 8 6 7 6 5 5 6 6 6 7 3 3 6 5 3 2 3 7 5 4 5 4 4
8 8 10 15 17 17 16 17 16 16 14 12 12 10 9 8 10 9 7 7 6 7 6 5 6 7 6 7 5 4 1 4 4 4 2 4 7 6 3 5 5 4 4
9 10 10 14 16 16 16 16 15 14 13 12 12 11 10 10 10 9 8 7 6 6 6 6 6 6 7 4 5 5 5 4 4 2 4 6 7 6 6 6 6 3 5
9 11 14 13 14 15 14 13 13 13 14 13 12 12 11 9 8 7 7 7 6 6 6 6 6 8 3 4 7 8 7 7 6 6 7 6 9 12 8 6 4 6 4
10 12 12 12 16 17 16 13 13 14 14 13 13 12 9 8 9 9 8 7 6 7 6 6 8 6 1 13 13 11 9 8 9 9 8 6 10 9 11 12 10 8 5
9 16 18 18 16 17 17 16 14 12 13 13 12 10 9 10 10 8 6 8 8 5 6 7 5 5 7 15 15 15 9 8 8 9 7 7 4 8 7 9 8 5 4
4 5 9 11 13 14 14 11 11 13 14 13 11 10 10 10 7 8 9 7 5 6 6 3 7 8 6 15 15 16 11 9 7 6 7 7 6 5 7 6 4 3 2
3 2 6 5 8 12 11 11 10 11 11 11 11 11 10 9 9 9 10 6 5 5 4 6 9 10 9 13 16 14 10 9 7 5 6 6 6 7 10 7 5 3 3
8 6 6 7 8 7 10 12 11 10 11 9 10 9 11 11 11 10 8 5 5 5 7 7 8 12 12 12 14 12 9 9 5 5 5 7 7 9 9 7 5 4 1
11 11 8 6 7 8 8 10 8 12 10 8 8 9 10 11 10 8 5 7 8 9 8 9 8 9 13 11 14 11 10 9 6 5 4 3 9 9 8 7 5 4 4
11 11 11 8 7 5 9 7 9 8 7 7 7 8 8 8 7 10 8 9 11 11 10 11 8 6 8 10 11 10 11 11 9 6 4 5 8 7 5 5 6 9 7
10 8 9 6 8 7 4 7 6 7 7 7 7 8 8 8 10 11 11 10 10 10 9 9 8 7 5 5 9 14 13 11 6 5 6 9 8 6 7 9 11 8 5
12 10 7 9 8 7 6 3 3 5 7 7 7 7 8 9 8 7 8 9 9 9 9 9 9 8 7 6 6 7 6 12 8 10 6 6 7 6 5 5 5 5 4
10 8 8 7 7 9 7 6 6 4 5 5 6 7 7 9 8 6 4 9 9 12 12 10 11 12 10 9 11 11 9 8 8 8 4 3 3 3 3 4 4 4 4
9 10 8 7 7 8 9 7 6 4 5 6 6 7 7 7 6 7 5 14 4 12 10 18 13 7 13 18 16 14 14 17 15 5 4 3 3 5 4 5 3 2 5
Wind_Direction
189 193 191 184 180 185 181 184 175 188 169 156 150 151 183 206 289 264 257 249 230 225 228 248 270 309 68 232 272 86 284 327 310 351 331 334 323 285 350 36 341 252 224
195 182 189 184 182 182 185 181 190 186 188 168 151 142 168 181 187 244 270 254 231 220 212 237 246 257 236 258 314 221 24 307 10 43 349 342 328 345 353 309 297 277 286
199 185 187 187 186 186 186 187 190 189 190 171 124 96 58 32 109 353 282 257 230 238 233 244 243 238 204 256 292 279 184 262 317 138 191 332 251 323 332 350 310 296 299
205 193 188 188 188 195 191 191 187 183 191 176 174 165 174 194 212 179 233 280 251 243 235 230 241 243 231 247 246 276 228 188 268 303 286 287 221 286 321 319 319 322 351
200 194 193 191 194 189 188 190 188 187 187 189 185 177 189 198 186 212 257 279 282 251 241 239 254 253 242 248 224 283 243 200 215 195 226 243 235 232 222 282 308 358 2
203 202 193 189 195 192 189 186 183 195 188 189 183 182 190 194 208 237 252 263 275 291 252 247 244 229 244 251 227 230 222 201 197 193 180 213 223 257 249 252 312 305 352
199 193 190 192 192 193 190 186 184 194 191 191 191 194 196 186 204 212 223 246 259 259 270 259 270 242 242 237 203 214 214 186 115 159 184 186 226 199 223 280 293 294 304
200 193 192 190 191 193 192 188 184 193 191 191 197 199 193 200 208 198 206 233 223 225 243 241 235 272 273 249 224 277 3 93 109 130 115 186 258 220 210 216 153 294 335
199 198 191 190 189 190 194 192 189 196 191 195 194 195 194 203 210 207 205 221 234 236 238 238 244 262 273 269 241 238 161 130 159 133 100 68 300 288 272 228 173 161 210
197 194 192 191 190 194 194 192 193 192 190 191 194 195 199 206 213 193 220 210 228 232 239 230 216 244 260 264 261 240 159 158 171 120 85 355 343 10 346 47 47 192 156
203 198 192 192 191 189 187 194 191 191 191 193 198 199 200 201 199 216 225 225 225 230 233 230 226 227 249 263 263 247 228 180 138 68 107 44 302 86 64 51 43 36 65
212 200 193 185 186 186 185 191 190 186 194 193 191 196 199 189 194 216 224 204 222 224 235 235 236 238 243 254 227 250 249 55 115 165 168 99 112 73 59 64 45 39 34
191 175 168 183 187 187 186 187 187 192 187 186 188 191 193 188 207 215 213 208 207 225 231 229 225 241 232 235 194 227 109 89 140 159 208 120 107 93 81 74 76 51 60
174 174 174 185 189 188 186 184 187 185 181 184 189 192 192 197 204 211 215 211 200 213 225 231 236 242 251 154 172 134 120 115 114 103 96 102 103 117 111 101 91 92 75
182 185 187 182 183 185 186 181 182 178 179 183 189 198 197 196 199 200 205 210 194 209 218 235 243 247 216 162 138 131 129 116 96 84 90 93 112 119 125 114 127 102 88
212 203 197 177 179 180 184 174 173 177 172 185 197 196 184 179 194 205 201 196 203 208 206 226 240 260 190 135 130 132 128 121 120 107 89 94 107 102 109 125 124 129 120
142 189 193 183 180 180 176 179 170 164 175 187 196 186 180 186 200 194 177 202 207 196 210 230 227 108 111 125 128 125 122 119 119 120 120 108 94 101 102 94 91 88 99
74 153 158 175 181 169 173 170 159 166 181 190 184 178 183 190 175 175 192 206 183 192 206 210 117 118 120 129 123 117 121 116 111 115 116 121 134 141 121 105 84 67 56
62 49 155 143 144 162 157 151 153 171 181 188 184 182 180 174 171 189 198 195 167 167 161 137 127 126 132 131 133 124 119 107 97 101 110 134 147 159 124 122 119 72 15
59 36 124 112 137 152 145 149 169 172 189 186 192 176 173 177 185 194 183 154 153 134 125 119 128 136 137 140 129 129 126 115 115 96 101 128 140 134 133 141 143 108 344
54 57 64 112 139 138 141 164 160 194 194 177 173 177 182 185 185 165 154 142 128 123 120 116 118 129 143 148 135 140 134 136 139 132 121 124 129 131 148 150 154 146 147
25 47 62 64 59 147 149 167 188 197 174 161 169 176 176 179 162 156 144 138 135 129 130 123 112 119 134 137 137 126 132 140 136 144 149 135 117 128 155 156 149 115 101
11 360 67 48 48 39 107 177 227 150 154 158 177 177 169 166 160 153 152 144 143 140 141 135 132 133 124 128 126 129 128 121 111 134 139 120 117 111 77 100 117 104 94
3 347 14 44 22 8 18 356 302 184 162 173 172 161 158 153 153 150 156 148 147 145 147 142 143 142 143 144 141 133 114 106 108 119 108 105 93 86 99 87 77 101 105
351 346 358 27 11 347 346 345 331 155 167 156 141 143 147 158 142 116 148 161 166 162 154 160 154 155 166 174 159 154 152 142 143 118 90 91 83 89 82 69 84 98 100
352 358 352 2 4 346 327 319 321 201 159 139 147 154 147 136 130 130 102 40 86 145 141 143 152 156 146 145 157 150 139 133 142 96 135 131 140 147 143 128 101 67 124